Location: Larkspur
(54.4391°N, 113.7691°W)
Time: 13:12:00
(UTC+00:00)

Oscar 19 - Pass Details

Date: 05 December 2023
Orbit: 771 x 789 km, 98.9° (Epoch: 01 March)

Event Time Altitude Azimuth Distance (km) Brightness Sun altitude
Rises 11:58:53 0° 19° (NNE) 3,273 14.1 -30.5°
Reaches altitude 10° 12:01:18 10° 26° (NNE) 2,344 13.4 -30.2°
Maximum altitude 12:06:15 45° 99° (E) 1,062 11.6 -29.5°
Drops below altitude 10° 12:11:12 10° 172° (S) 2,338 13.2 -28.8°
Sets 12:13:36 0° 179° (S) 3,265 13.9 -28.4°
